Theta_e
307 306 306 306 305 305 305 305 304 304 304 304 304 304 305 305 305 305 304 305 306 308 309 311 313 315 312 307 306 310 323 320 314 312 308 306 305 305 302 307 310 309 310 311 311 310 309
306 305 305 305 305 305 305 305 304 304 304 304 304 304 304 303 304 304 304 304 306 307 309 311 314 314 308 300 311 311 310 310 311 310 308 307 305 307 305 305 307 311 311 311 311 309 310
305 305 305 304 304 304 304 304 304 304 303 303 303 303 303 303 303 304 304 305 306 307 310 312 315 312 305 303 312 312 311 308 309 309 307 310 309 305 307 303 309 309 306 309 310 309 309
304 304 304 304 304 304 304 304 304 303 303 303 303 304 304 304 304 304 305 305 306 308 311 315 313 311 303 313 313 310 310 308 310 311 309 310 310 306 305 307 305 304 305 300 307 309 311
304 304 304 304 303 304 304 303 303 303 303 303 303 304 304 304 305 305 306 306 307 311 314 313 311 311 302 311 307 308 308 305 308 309 310 310 308 303 303 299 298 301 297 300 303 310 310
304 304 305 304 304 303 303 304 303 302 303 304 304 305 304 305 305 305 306 306 311 311 312 313 311 303 306 303 307 309 310 308 305 306 304 304 302 298 299 296 290 294 296 300 301 307 308
304 304 305 304 304 303 303 304 303 303 303 303 304 305 304 305 305 305 305 310 308 308 310 305 305 302 304 306 309 306 309 306 304 303 297 301 296 292 296 299 298 298 298 298 302 308 306
303 303 303 303 303 303 303 303 302 303 302 303 304 304 304 305 305 306 308 304 301 302 296 304 305 306 309 309 301 305 309 301 300 295 299 297 294 298 300 299 298 297 296 297 302 306 307
302 302 302 303 303 303 302 302 302 303 302 303 304 304 303 304 305 306 307 302 307 311 298 301 305 302 303 305 301 302 305 302 298 296 297 294 297 301 299 297 296 296 296 297 297 302 307
302 302 301 302 302 302 302 302 301 301 303 303 303 303 303 303 303 304 304 306 308 312 294 298 299 302 303 304 299 307 307 303 299 295 297 296 300 298 297 295 296 292 299 298 297 297 295
302 302 302 301 301 301 301 301 301 301 302 303 302 302 302 302 304 302 302 307 309 308 286 298 299 309 306 300 301 302 307 303 297 297 297 294 297 296 295 296 298 294 299 297 297 295 296
302 301 301 301 300 301 301 301 301 302 303 302 302 302 303 305 308 305 307 309 308 295 283 293 300 299 299 300 300 302 301 304 303 297 298 297 301 299 298 299 299 299 296 295 296 295 288
301 301 301 301 300 301 300 301 301 302 302 302 302 302 301 303 300 307 309 306 294 285 295 292 293 297 297 296 299 298 297 295 292 289 290 294 295 299 300 295 298 297 293 286 284 285 285
301 301 301 301 301 300 300 301 301 301 301 301 301 301 306 304 306 309 306 299 283 291 291 295 294 294 291 294 295 297 296 293 297 294 291 289 287 295 299 296 293 294 293 287 280 282 286
300 300 301 300 300 300 300 300 301 301 301 300 300 304 304 305 309 309 300 288 288 290 291 289 291 290 290 293 293 294 294 294 296 297 290 289 289 298 299 300 297 293 290 296 290 291 287
299 299 300 300 300 300 300 300 301 301 301 300 296 299 299 307 309 305 296 287 290 292 291 290 285 290 287 291 291 292 292 295 293 296 298 295 288 296 298 300 299 296 297 290 291 282 281
298 299 299 300 300 300 300 299 300 301 300 300 298 293 300 305 306 299 289 289 289 291 290 288 287 287 288 288 290 290 291 292 293 294 297 296 293 292 297 294 293 293 292 293 293 291 284
298 298 298 298 299 299 299 299 299 299 300 297 295 289 301 304 290 290 288 287 289 288 291 289 290 288 287 288 286 288 289 292 294 294 290 294 291 288 291 297 299 297 294 294 287 286 290
298 298 298 298 298 299 299 299 299 298 298 294 290 291 300 300 284 285 286 286 287 285 286 286 285 288 288 285 282 287 289 295 293 291 287 289 289 284 286 292 296 293 295 295 295 294 288
298 298 298 298 298 298 298 299 298 298 298 295 290 284 290 291 290 285 283 283 282 287 285 285 283 287 285 282 285 284 287 291 292 290 290 291 288 286 283 287 292 290 293 295 294 288 290
297 297 298 298 297 298 298 298 298 298 297 294 289 285 287 282 286 284 285 283 281 280 284 285 282 284 281 278 279 280 284 284 286 290 289 288 282 285 287 290 290 290 290 292 291 292 289
298 297 297 297 297 298 298 298 298 298 297 292 286 285 286 283 286 284 283 281 280 281 281 280 280 281 281 278 280 277 280 280 280 284 285 288 281 283 281 285 287 286 289 291 292 293 293
298 298 297 297 298 298 298 298 297 297 296 290 291 291 287 283 283 282 282 282 281 283 283 283 282 281 280 282 284 284 284 283 282 280 280 280 280 279 275 282 283 280 286 289 292 295 295
298 298 298 297 298 298 298 297 297 297 296 293 293 290 284 278 281 281 282 283 281 282 281 283 284 281 284 289 287 285 284 283 283 283 284 279 278 278 276 279 272 284 292 293 292 294 296
298 298 298 297 297 297 297 297 297 297 297 294 294 290 286 280 282 281 282 281 283 283 282 282 284 287 289 285 279 276 277 278 281 283 283 284 280 276 273 274 279 283 288 289 290 291 296
297 297 297 297 297 297 297 297 297 297 297 296 294 297 288 282 280 284 282 282 279 279 280 282 287 289 287 281 278 271 269 274 274 278 285 285 284 278 276 272 270 281 288 293 293 283 294
297 297 297 297 297 296 297 297 297 297 297 297 295 297 288 283 286 285 281 281 284 282 279 281 282 282 285 278 275 272 271 277 272 273 275 278 278 276 276 274 277 286 290 292 280 284 291
297 297 297 296 296 297 297 297 297 297 297 296 293 298 289 284 286 288 287 284 284 283 279 282 280 281 279 275 275 275 274 276 275 277 276 276 276 276 277 274 272 289 289 285 287 292 291
297 297 297 296 296 297 297 297 296 296 296 297 291 296 297 286 285 292 292 292 290 288 285 284 281 280 281 277 277 277 275 276 275 271 281 275 280 277 278 278 288 289 287 291 292 289 291
Wind_Speed
23 23 23 24 24 24 24 25 25 25 25 26 26 27 27 27 27 27 27 26 25 24 23 22 19 15 10 8 12 11 5 6 6 9 11 14 16 15 19 19 21 23 19 21 19 2 7
22 23 23 23 23 25 25 26 27 27 27 28 28 28 28 29 29 29 28 27 25 24 23 21 16 8 7 12 2 4 4 5 11 10 11 13 14 16 18 20 22 22 21 14 17 6 13
23 23 24 23 24 25 25 26 27 28 28 29 30 30 31 31 31 30 29 27 25 24 22 17 11 7 10 20 3 8 6 8 11 12 12 11 12 16 12 15 18 19 22 14 20 11 15
22 22 23 24 24 25 26 27 28 28 30 30 31 30 30 31 31 31 29 27 24 21 17 11 5 10 9 8 6 9 10 12 10 9 11 12 9 12 15 15 19 19 20 16 16 14 13
23 23 23 24 24 25 27 27 28 30 31 31 31 31 31 32 31 29 27 26 23 18 10 5 6 9 9 3 10 11 14 12 12 11 11 10 6 12 14 15 15 17 17 20 23 21 15
22 23 24 25 25 26 27 28 28 29 30 30 31 32 33 32 30 29 28 28 12 7 8 10 11 9 8 10 2 3 8 9 12 9 11 11 8 14 14 15 18 20 20 22 21 22 22
24 26 24 24 25 26 27 27 28 28 29 31 32 33 34 32 29 29 18 9 3 6 10 10 7 12 4 3 6 9 10 9 13 12 14 15 13 17 18 20 24 22 24 26 22 23 25
23 24 24 25 25 26 27 28 28 28 31 32 32 33 33 31 28 27 14 7 10 6 13 19 24 22 20 11 8 11 10 9 13 16 16 15 19 17 18 20 21 24 25 26 24 23 20
22 23 25 25 24 25 27 28 29 29 30 31 32 33 34 31 29 14 7 13 11 12 8 11 15 17 16 16 19 18 15 15 14 17 18 19 15 19 16 17 21 22 23 23 26 18 5
22 22 24 25 26 26 27 28 29 30 30 31 32 33 32 29 11 10 5 14 12 7 6 7 6 3 6 4 10 20 20 16 16 20 18 18 18 19 17 15 18 21 21 21 23 24 10
24 23 24 24 26 26 27 29 30 31 31 31 32 31 30 26 9 8 13 13 11 3 4 5 9 5 3 10 13 11 19 16 19 17 15 17 19 18 19 19 15 19 18 19 23 24 16
24 24 25 24 25 26 27 28 29 30 31 32 32 31 25 9 7 14 14 13 5 3 6 5 4 4 9 12 12 8 4 17 12 20 21 20 19 18 16 15 17 16 16 19 20 16 18
23 24 25 25 26 27 28 29 29 30 31 33 34 31 23 11 9 15 12 7 4 4 2 3 7 10 11 13 10 12 9 13 13 14 16 20 24 21 17 13 15 15 14 11 12 15 14
22 22 24 25 26 26 28 28 29 30 32 34 35 35 11 6 11 12 9 6 2 9 9 17 13 17 16 16 17 15 13 14 18 18 17 16 18 23 20 24 18 19 18 12 15 16 17
22 23 23 24 25 26 27 28 28 31 32 35 32 5 3 8 10 8 7 2 3 10 12 15 18 15 14 13 13 13 11 15 15 12 18 17 26 23 18 23 24 22 21 18 18 19 15
21 22 24 24 25 25 26 27 28 30 33 38 13 10 6 13 10 7 6 2 4 10 11 10 9 11 12 16 15 6 10 16 15 19 18 9 18 18 25 15 15 19 15 16 13 21 22
21 22 23 24 24 25 26 26 28 29 32 38 6 7 9 18 8 5 1 2 5 9 10 8 12 15 14 16 16 17 15 17 17 19 16 13 11 16 21 22 15 14 16 18 17 14 16
21 22 23 23 24 24 25 25 26 28 31 16 9 5 10 11 6 4 4 6 5 9 10 6 9 8 10 13 13 15 17 10 14 17 12 13 7 9 21 20 22 21 21 19 14 21 16
21 21 22 22 23 23 24 23 23 26 27 14 9 6 8 10 4 4 5 8 2 6 8 7 8 7 10 10 7 11 10 13 17 16 12 12 6 10 18 17 22 23 23 17 18 15 20
21 21 21 22 22 22 23 22 20 22 25 12 6 5 4 6 7 8 7 5 6 5 6 9 11 9 7 10 12 11 16 9 15 15 6 9 9 12 14 20 22 18 22 23 20 14 15
20 20 21 21 21 21 21 20 18 19 23 11 5 5 6 5 4 8 7 9 8 6 6 10 4 5 11 8 16 12 14 20 22 16 10 6 10 15 20 24 28 25 26 23 22 22 19
21 20 20 21 21 21 20 18 16 15 21 5 4 4 8 12 9 10 1 7 7 5 7 10 12 9 10 11 13 17 18 16 11 15 14 14 13 12 22 22 25 29 26 25 23 24 24
21 20 20 21 20 21 20 16 15 11 10 5 5 4 4 8 10 9 7 7 8 11 8 6 10 11 14 14 14 14 15 16 20 22 20 20 14 14 22 21 23 18 26 25 25 24 22
21 21 21 21 20 21 20 17 14 13 7 8 7 4 4 8 10 12 13 13 14 14 14 14 13 15 15 14 14 17 19 22 23 23 20 22 19 14 17 18 21 19 20 23 25 25 24
22 21 21 21 21 20 20 16 15 14 12 8 8 3 3 7 11 13 14 15 15 13 15 18 15 15 13 12 14 16 14 19 21 27 24 22 18 12 14 16 22 28 20 24 20 20 16
22 21 21 21 21 20 19 17 16 14 15 8 8 6 4 6 11 16 11 14 13 14 15 13 10 13 12 11 10 13 12 19 11 12 12 11 21 15 14 19 21 21 22 27 23 20 16
22 22 22 22 21 21 20 18 17 16 15 10 8 9 4 7 13 17 16 14 14 11 9 14 15 12 13 10 11 13 17 18 20 24 19 13 12 15 17 18 16 19 25 24 18 8 14
22 22 22 22 21 21 20 19 17 17 17 11 9 8 6 5 15 22 24 21 15 14 12 12 12 9 10 13 13 13 15 15 20 22 22 20 14 8 5 10 21 12 10 7 10 12 12
22 22 22 22 22 21 20 20 20 19 19 16 11 10 9 9 9 16 19 21 23 22 15 14 16 18 9 9 7 5 9 10 18 13 16 15 13 8 6 8 17 20 19 5 14 13 15
Wind_Direction
23 22 20 16 13 10 9 7 3 359 357 353 349 346 342 338 335 331 327 323 320 316 311 307 306 309 302 238 256 120 164 175 231 218 237 245 245 244 250 252 253 248 242 247 256 334 301
23 18 17 14 10 7 5 3 360 357 355 351 348 345 341 337 333 328 324 320 315 311 306 303 299 300 251 258 285 162 248 247 258 240 249 240 258 253 262 269 257 258 255 245 261 224 262
20 15 15 11 7 4 2 1 359 354 352 349 346 343 339 335 330 325 321 316 311 307 301 296 295 232 264 249 271 306 225 254 256 259 272 269 264 260 277 256 272 270 275 247 252 206 238
15 12 10 9 7 2 359 358 355 353 350 347 344 341 336 332 327 322 317 311 308 302 293 283 265 246 258 282 277 278 259 255 242 254 259 285 319 290 275 283 282 253 255 253 234 214 212
11 8 8 5 3 1 356 357 354 351 348 345 342 338 335 330 325 319 313 307 302 291 264 239 234 225 262 159 234 239 230 236 237 226 242 255 247 262 250 243 252 244 246 226 246 199 198
6 1 360 360 1 358 356 353 353 349 346 343 340 337 334 330 325 317 316 295 274 296 225 209 255 277 241 249 167 267 236 242 243 223 231 230 240 240 230 235 228 231 229 244 236 236 199
7 1 1 358 360 357 352 352 349 348 345 342 338 337 333 330 325 317 324 311 230 184 232 242 185 251 306 173 301 238 240 219 236 236 230 222 232 234 236 226 250 254 246 241 233 244 193
4 2 356 354 357 355 352 350 348 346 344 341 337 336 334 330 324 318 313 38 29 317 295 271 263 263 266 291 267 266 221 212 216 229 227 240 234 244 250 257 247 241 257 257 262 238 191
3 1 357 354 355 353 352 349 347 345 344 340 338 336 333 328 322 301 45 19 357 338 266 285 225 242 242 234 250 253 235 219 227 226 239 242 247 237 234 254 259 253 243 247 258 261 228
358 358 359 355 354 353 350 348 347 344 342 340 337 336 332 329 295 317 51 354 346 336 272 178 188 227 211 238 264 230 248 212 229 245 235 247 254 257 252 252 246 258 253 261 264 261 196
360 357 354 354 353 350 349 347 345 343 340 338 336 336 329 327 303 2 336 331 322 273 312 133 125 84 124 215 341 183 214 225 237 233 236 252 248 251 251 257 254 261 281 279 269 266 250
358 356 355 352 352 349 349 346 344 341 338 337 335 333 331 324 281 359 329 311 279 235 249 149 108 196 211 220 247 275 220 235 248 250 261 258 264 262 242 260 256 249 258 263 270 270 255
357 356 354 352 350 348 347 346 343 340 338 336 333 328 317 297 338 325 312 277 255 192 198 60 8 331 317 302 250 230 204 217 230 234 246 254 252 248 255 246 264 260 239 243 248 244 249
353 355 352 350 348 347 347 345 342 340 338 334 332 315 286 17 332 318 296 246 210 274 359 4 347 318 286 278 261 241 231 241 216 249 275 267 241 232 227 235 235 235 231 227 234 230 241
348 348 351 350 348 346 345 344 342 339 337 330 326 300 311 4 333 310 285 257 252 12 3 343 320 269 270 249 258 272 294 250 257 240 243 251 265 281 266 220 218 232 248 246 234 259 263
346 345 345 348 348 345 344 343 342 339 337 330 319 286 24 335 334 293 259 274 82 7 343 329 304 318 322 337 335 308 252 37 350 359 348 309 303 277 268 293 225 228 245 247 223 238 249
342 343 342 343 345 346 343 342 342 339 339 327 281 300 5 339 305 268 9 306 8 350 346 329 340 315 322 317 322 310 295 52 8 342 328 347 289 277 291 252 257 235 237 249 269 261 232
337 338 339 339 342 345 343 341 341 339 343 340 316 351 16 327 42 4 353 3 332 348 359 339 322 345 320 338 312 312 306 49 26 6 3 4 311 284 275 285 278 266 260 245 231 253 259
332 333 334 335 336 342 341 340 340 337 344 332 327 318 27 344 48 13 328 303 315 351 350 352 310 355 323 316 307 289 285 44 26 11 19 348 314 294 267 259 268 262 259 256 266 263 241
325 327 327 329 331 338 337 338 339 334 334 335 322 330 355 28 356 343 354 333 324 71 312 357 305 301 328 325 305 292 311 335 354 335 2 301 273 277 278 294 306 300 290 265 256 254 261
319 319 321 322 323 332 332 336 337 331 327 321 340 316 2 312 336 333 328 316 313 340 13 324 334 309 349 324 321 289 321 327 318 312 309 273 280 297 291 290 293 297 297 295 289 291 263
313 314 315 316 320 320 325 329 333 326 327 286 336 331 332 299 312 288 17 281 287 324 333 316 302 329 320 305 297 310 328 322 307 322 311 300 286 285 291 290 291 289 284 279 272 269 269
307 308 309 310 318 315 320 322 330 321 326 306 324 313 300 304 298 294 286 296 305 297 304 272 301 291 290 301 326 315 301 290 279 282 280 285 285 282 272 290 288 280 260 266 269 271 280
302 303 305 310 312 313 316 320 318 316 288 295 302 310 280 285 301 301 310 309 300 302 304 305 299 286 289 315 314 294 279 274 268 257 241 254 257 262 270 286 259 254 278 274 271 274 281
301 303 303 304 306 310 309 309 307 306 293 274 293 282 267 270 283 291 292 298 297 290 291 292 292 293 305 298 292 293 301 284 264 247 244 220 238 255 244 250 273 277 255 264 260 288 341
298 297 297 298 299 303 304 300 298 294 290 273 267 268 267 278 261 278 290 294 291 289 293 285 307 315 307 290 289 278 273 286 275 299 317 269 211 229 243 255 250 263 261 268 278 273 24
294 294 294 295 295 296 298 293 290 290 285 276 272 267 252 248 253 268 270 289 293 280 276 290 285 294 311 284 266 268 269 281 280 279 282 288 287 232 230 239 266 280 295 300 276 303 50
290 290 290 290 290 292 290 288 282 284 283 277 273 270 253 259 267 269 271 265 268 271 275 278 281 283 290 283 265 264 263 263 267 266 266 267 270 250 243 267 246 264 317 355 359 8 15
287 287 288 289 289 289 285 282 279 276 276 277 271 268 260 258 276 283 275 263 263 261 260 257 269 277 262 266 285 316 287 273 276 283 289 275 288 312 285 269 308 332 326 329 324 344 344